Location: Unspecified
(0.0000°N, 0.0000°E)
Time: 00:51:46
(UTC+01:00)

Meteor PRIRODA - Visible Passes

Search period start: 29 March 2015 00:00
Search period end: 08 April 2015 01:00
Orbit: 504 x 526 km, 97.3° (Epoch: 27 March)

Date Brightness Start Highest point End Pass type
(mag) Time Alt. Az. Time Alt. Az. Time Alt. Az.
29 Mar 4.1 06:50:25 10° N 06:53:52 39° WNW 06:53:52 39° WNW visible
30 Mar 3.6 06:35:13 10° N 06:38:48 70° NW 06:38:48 70° NW visible
31 Mar 4.2 06:20:15 10° NNE 06:23:43 59° ENE 06:23:43 59° ENE visible
01 Apr 5.4 06:05:32 10° NE 06:08:36 33° E 06:08:36 33° E visible
02 Apr 6.3 05:51:08 10° NE 05:53:28 20° E 05:53:28 20° E visible
02 Apr 5.6 07:26:22 10° WNW 07:27:54 12° W 07:28:28 11° W visible
03 Apr 7.0 05:37:29 10° ENE 05:38:20 12° E 05:38:20 12° E visible
03 Apr 5.0 07:09:56 10° NNW 07:12:48 20° W 07:13:19 19° W visible
04 Apr 4.3 06:54:14 10° NNW 06:57:42 34° W 06:58:09 32° W visible
05 Apr 3.6 06:38:53 10° N 06:42:38 61° WNW 06:42:58 58° WSW visible
06 Apr 3.8 06:23:46 10° NNE 06:27:33 73° E 06:27:47 70° SE visible
07 Apr 5.0 06:08:54 10° NNE 06:12:28 39° E 06:12:33 39° ESE visible
